Weather in Taskino

Russia / Amur Oblast     51°45′50″N   129°05′05″E
temp.,
°C
wind,
m/s
gust,
m/s
humid.,
%
clouds,
%
prec.,
mm/h
press.,
hPa
HPBL,
m
20 june, sun
sun2000:00+14e279098 0.0 1005133
03:00+13e229379 0.0 100621
06:00+15ne1384100 0.0 1007101
09:00+21ne2459100 0.0 1007607
12:00+25nne2441100 0.0 10062321
15:00+26ene343399 0.0 10052522
18:00+25se124560 0.0 1005654
21:00+18wnw11636 0.0 100611
21 june, mon
mon2100:00+16wnw227410 0.0 100635
03:00+15wnw228098 0.0 100720
06:00+17nnw117544 0.0 100860
09:00+24nw125056 0.0 1008610
12:00+28nw23376 0.0 10071795
15:00+29nw323386 0.0 10062986
18:00+27wnw34415 0.0 1006722
21:00+19wsw22695 0.0 100626
22 june, tue
tue2200:00+17sw117714 0.0 100715
03:00+16sw237730 0.0 100737
06:00+18w137167 0.0 100883
09:00+24sw345063 0.0 1008641
12:00+28sw454027 0.0 10071709
15:00+28wsw353850 0.0 10062066
18:00+27wsw35445 0.0 10051261
21:00+19sw311815 0.1 1006227
23 june, wed
wed2300:00+17sw3108513 0.1 1006193
03:00+16wsw228172 0.1 100537
06:00+18wsw147322 0.0 1006115
09:00+24wnw255213 0.0 1006598
12:00+30w353940 0.0 10051809
15:00+30wnw243860 0.0 10041776
18:00+30w243927 0.0 10031091
21:00+20ene2275100 0.0 100566
24 june, thu
thu2400:00+17ese2291100 0.1 100545
03:00+16nne119270 0.1 100515
06:00+18ne128415 0.0 1005115
09:00+25nne12575 0.1 1005646
12:00+30n124015 0.0 10031394
15:00+31nnw233566 0.0 10022658
18:00+30nw234418 0.0 10021404
21:00+17wsw2696100 6.1 1005161